When you browse on this site, cookies collect data to enhance your experience and personalize the content and advertising you see.
Visit our Privacy Policy to learn more. By continuing to use the site, you agree to this use of cookies and data.
  • In Portugal
  • List of Countries
  • For 7 days
  • Water Temperature
  • Satellite Maps
  • Weather Map
  • Weather Widgets
  • user-avatar
    Login

    Hourly Weather Holove

    Today, 16 November, Friday

    Time Temperature Precipitation Wind Pressure Humidity
    00:00 0°C° 0 mm 1 mps 762 mmHg 92%
    01:00 0°C° 0 mm 1 mps 762 mmHg 91%
    02:00 -1°C° 0 mm 1 mps 762 mmHg 87%
    03:00 -2°C° 0 mm 1 mps 763 mmHg 86%
    04:00 -2°C° 0 mm 1 mps 763 mmHg 85%
    05:00 -2°C° 0 mm 1 mps 763 mmHg 84%
    06:00 -2°C° 0 mm 1 mps 763 mmHg 83%
    07:00 -5°C° 0 mm 2 mps 764 mmHg 82%
    08:00 -5°C° 0 mm 2 mps 764 mmHg 80%
    09:00 -2°C° 0 mm 1 mps 764 mmHg 77%
    10:00 -1°C° 0 mm 1 mps 764 mmHg 74%
    11:00 +1°C° 0 mm 1 mps 765 mmHg 70%
    12:00 +1°C° 0 mm 1 mps 765 mmHg 72%
    13:00 +1°C° 0 mm 1 mps 765 mmHg 74%
    14:00 +1°C° 0 mm 1 mps 765 mmHg 75%
    15:00 0°C° 0 mm 1 mps 765 mmHg 75%
    16:00 -1°C° 0 mm 1 mps 765 mmHg 75%
    17:00 -2°C° 0 mm 1 mps 765 mmHg 75%
    18:00 -2°C° 0 mm 1 mps 765 mmHg 74%
    19:00 -2°C° 0 mm 1 mps 765 mmHg 73%
    20:00 -2°C° 0 mm 1 mps 765 mmHg 72%
    21:00 -3°C° 0 mm 1 mps 765 mmHg 70%
    22:00 -3°C° 0 mm 1 mps 765 mmHg 68%
    23:00 -3°C° 0 mm 1 mps 765 mmHg 67%

    Tomorrow, 17 November, Saturday

    Time Temperature Precipitation Wind Pressure Humidity
    00:00 -3°C° 0 mm 1 mps 765 mmHg 65%
    01:00 -4°C° 0 mm 0 mps 765 mmHg 64%
    02:00 -4°C° 0 mm 0 mps 765 mmHg 62%
    03:00 -4°C° 0 mm 0 mps 765 mmHg 61%
    04:00 -4°C° 0 mm 0 mps 764 mmHg 61%
    05:00 -4°C° 0 mm 0 mps 764 mmHg 60%
    06:00 -3°C° 0 mm 1 mps 764 mmHg 60%
    07:00 -3°C° 0 mm 1 mps 764 mmHg 61%
    08:00 -3°C° 0 mm 1 mps 764 mmHg 61%
    09:00 -2°C° 0 mm 1 mps 763 mmHg 61%
    10:00 -1°C° 0 mm 1 mps 763 mmHg 61%
    11:00 0°C° 0 mm 1 mps 763 mmHg 61%
    12:00 -1°C° 0 mm 2 mps 762 mmHg 64%
    13:00 -1°C° 0 mm 2 mps 761 mmHg 66%
    14:00 -1°C° 0 mm 2 mps 761 mmHg 69%
    15:00 -1°C° 0 mm 3 mps 760 mmHg 70%
    16:00 -2°C° 0 mm 3 mps 760 mmHg 71%
    17:00 -2°C° 0 mm 3 mps 759 mmHg 73%
    18:00 -2°C° 0 mm 3 mps 758 mmHg 75%
    19:00 -2°C° 0 mm 3 mps 758 mmHg 77%
    20:00 -3°C° 0 mm 4 mps 757 mmHg 79%
    21:00 -3°C° 0 mm 4 mps 756 mmHg 82%
    22:00 -3°C° 0 mm 4 mps 755 mmHg 86%
    23:00 -3°C° 0 mm 4 mps 755 mmHg 89%

    Day after tomorrow, 18 November, Sunday

    Time Temperature Precipitation Wind Pressure Humidity
    00:00 -3°C° 0 mm 4 mps 754 mmHg 91%
    01:00 -2°C° 0 mm 4 mps 753 mmHg 92%
    02:00 -2°C° 0 mm 5 mps 752 mmHg 94%
    03:00 -1°C° 0.1 mm 4 mps 751 mmHg 95%
    04:00 -1°C° 0.1 mm 4 mps 750 mmHg 95%
    05:00 -1°C° 0.1 mm 4 mps 749 mmHg 96%
    06:00 -1°C° 0.1 mm 4 mps 749 mmHg 96%
    07:00 -1°C° 0.1 mm 4 mps 748 mmHg 97%
    08:00 -1°C° 0.1 mm 4 mps 748 mmHg 97%
    09:00 +1°C° 0.1 mm 3 mps 748 mmHg 97%
    10:00 +1°C° 0.1 mm 3 mps 748 mmHg 98%
    11:00 +1°C° 0.1 mm 3 mps 747 mmHg 98%
    12:00 +1°C° 0.2 mm 3 mps 747 mmHg 98%
    13:00 +1°C° 0.2 mm 3 mps 747 mmHg 98%
    14:00 +2°C° 0.2 mm 2 mps 747 mmHg 98%
    15:00 +1°C° 0.3 mm 3 mps 747 mmHg 98%
    16:00 +1°C° 0.3 mm 3 mps 746 mmHg 98%
    17:00 +1°C° 0.3 mm 3 mps 746 mmHg 97%
    18:00 +1°C° 0.2 mm 3 mps 746 mmHg 97%
    19:00 0°C° 0.2 mm 3 mps 746 mmHg 96%
    20:00 0°C° 0.2 mm 3 mps 746 mmHg 96%
    21:00 0°C° 0.1 mm 3 mps 747 mmHg 96%
    22:00 0°C° 0.1 mm 3 mps 747 mmHg 95%
    23:00 0°C° 0.1 mm 3 mps 747 mmHg 95%

    19 November, Monday

    Time Temperature Precipitation Wind Pressure Humidity
    00:00 0°C° 0 mm 3 mps 747 mmHg 95%
    01:00 0°C° 0 mm 3 mps 748 mmHg 96%
    02:00 0°C° 0 mm 3 mps 748 mmHg 96%
    03:00 0°C° 0.1 mm 3 mps 748 mmHg 96%
    04:00 0°C° 0.1 mm 3 mps 748 mmHg 95%
    05:00 -1°C° 0.1 mm 4 mps 748 mmHg 95%
    06:00 -1°C° 0.1 mm 4 mps 748 mmHg 95%
    07:00 -1°C° 0.1 mm 4 mps 749 mmHg 94%
    08:00 -1°C° 0.1 mm 4 mps 749 mmHg 94%
    09:00 -1°C° 0.2 mm 4 mps 749 mmHg 94%
    10:00 -1°C° 0.2 mm 4 mps 749 mmHg 94%
    11:00 -1°C° 0.2 mm 4 mps 750 mmHg 93%
    12:00 -1°C° 0.2 mm 4 mps 750 mmHg 94%
    13:00 -1°C° 0.2 mm 4 mps 750 mmHg 94%
    14:00 0°C° 0.2 mm 3 mps 751 mmHg 94%
    15:00 0°C° 0.1 mm 3 mps 751 mmHg 94%
    16:00 0°C° 0.1 mm 3 mps 751 mmHg 94%
    17:00 0°C° 0.1 mm 3 mps 751 mmHg 94%
    18:00 0°C° 0.2 mm 3 mps 752 mmHg 94%
    19:00 -1°C° 0.2 mm 3 mps 752 mmHg 94%
    20:00 -1°C° 0.2 mm 3 mps 752 mmHg 94%
    21:00 -1°C° 0.1 mm 3 mps 752 mmHg 93%
    22:00 -2°C° 0.1 mm 4 mps 753 mmHg 92%
    23:00 -3°C° 0.1 mm 4 mps 753 mmHg 91%

    20 November, Tuesday

    Time Temperature Precipitation Wind Pressure Humidity
    00:00 -2°C° 0 mm 3 mps 753 mmHg 91%
    01:00 -4°C° 0 mm 3 mps 753 mmHg 91%
    02:00 -5°C° 0 mm 3 mps 754 mmHg 90%
    03:00 -5°C° 0 mm 3 mps 754 mmHg 90%
    04:00 -6°C° 0 mm 3 mps 754 mmHg 89%
    05:00 -6°C° 0 mm 3 mps 754 mmHg 89%
    06:00 -6°C° 0 mm 3 mps 754 mmHg 89%
    07:00 -6°C° 0 mm 3 mps 754 mmHg 88%
    08:00 -5°C° 0 mm 3 mps 754 mmHg 88%
    09:00 -5°C° 0 mm 4 mps 754 mmHg 88%
    10:00 -4°C° 0 mm 4 mps 754 mmHg 87%
    11:00 -3°C° 0 mm 4 mps 754 mmHg 86%
    12:00 -3°C° 0 mm 4 mps 753 mmHg 86%
    13:00 -2°C° 0 mm 4 mps 753 mmHg 85%
    14:00 -1°C° 0 mm 3 mps 753 mmHg 84%
    15:00 -1°C° 0 mm 3 mps 752 mmHg 85%
    16:00 -2°C° 0 mm 3 mps 752 mmHg 86%
    17:00 -2°C° 0 mm 3 mps 752 mmHg 86%
    18:00 -2°C° 0 mm 3 mps 752 mmHg 86%
    19:00 -2°C° 0 mm 3 mps 752 mmHg 85%
    20:00 -2°C° 0 mm 3 mps 752 mmHg 85%
    21:00 -4°C° 0 mm 3 mps 752 mmHg 86%
    22:00 -3°C° 0 mm 2 mps 752 mmHg 88%
    23:00 -4°C° 0 mm 2 mps 752 mmHg 89%

    21 November, Wednesday

    Time Temperature Precipitation Wind Pressure Humidity
    00:00 -4°C° 0 mm 2 mps 751 mmHg 91%
    01:00 -4°C° 0 mm 2 mps 751 mmHg 92%
    02:00 -4°C° 0 mm 2 mps 751 mmHg 93%
    03:00 -4°C° 0 mm 2 mps 751 mmHg 93%
    04:00 -3°C° 0 mm 2 mps 751 mmHg 94%
    05:00 -3°C° 0 mm 2 mps 751 mmHg 94%
    06:00 -4°C° 0 mm 3 mps 751 mmHg 93%
    07:00 -4°C° 0 mm 3 mps 751 mmHg 93%
    08:00 -2°C° 0 mm 3 mps 751 mmHg 93%
    09:00 -2°C° 0 mm 3 mps 750 mmHg 91%
    10:00 -2°C° 0 mm 3 mps 750 mmHg 90%
    11:00 -2°C° 0 mm 3 mps 750 mmHg 88%
    12:00 -3°C° 0 mm 4 mps 750 mmHg 88%
    13:00 -3°C° 0 mm 4 mps 749 mmHg 88%
    14:00 -3°C° 0 mm 4 mps 749 mmHg 88%
    15:00 -3°C° 0 mm 4 mps 749 mmHg 88%
    16:00 -3°C° 0 mm 4 mps 748 mmHg 88%
    17:00 -5°C° 0 mm 5 mps 748 mmHg 88%
    18:00 -4°C° 0 mm 4 mps 748 mmHg 88%
    19:00 -4°C° 0 mm 4 mps 748 mmHg 88%
    20:00 -4°C° 0 mm 4 mps 748 mmHg 88%
    21:00 -5°C° 0 mm 4 mps 748 mmHg 87%
    22:00 -6°C° 0 mm 5 mps 747 mmHg 86%
    23:00 -6°C° 0 mm 5 mps 747 mmHg 85%
    Show more